Franklin, NC

1:15 AM EST on February 23, 2017 (GMT -0500)
Franklin

Weather History for K1A5 - January, 2006

Change the Weather History Date:

Tuesday, January 24, 2006

  Actual Average (KTOC) Record (KTOC)
Temperature  
Mean Temperature 46 °F -  
Max Temperature 59 °F 53 °F 69 °F (2017)
Min Temperature 33 °F 33 °F 13 °F (2014)
Degree Days  
Heating Degree Days 19    
Moisture  
Dew Point 33 °F    
Average Humidity 61    
Maximum Humidity 94    
Minimum Humidity 17    
Precipitation  
Precipitation 0.00 in - - ()
Sea Level Pressure  
Sea Level Pressure 30.00 in    
Wind  
Wind Speed 3 mph (NNW)    
Max Wind Speed 15 mph    
Max Gust Speed 23 mph    
Visibility 9 miles    
Events Fog    
Averages and records for this station are not official NWS values.
T = Trace of Precipitation, MM = Missing Value Source: NWS Daily Summary

Daily Weather History Graph

Daily Weather History Graph

Search for Another Location

Airport or City:

Trip Planner

Search our weather history database for the weather conditions in past years. The results will help you decide how hot, cold, wet, or windy it might be!

Date:

Astronomy

Jan. 24, 2006 Rise Set
Actual Time 7:38 AM EST 5:53 PM EST
Civil Twilight 7:11 AM EST 6:20 PM EST
Nautical Twilight 6:40 AM EST 6:51 PM EST
Astronomical Twilight 6:10 AM EST 7:21 PM EST
Moon 2:50 AM EST (1/24) 12:49 PM EST (1/24)
Length of Visible Light 11h 09m
Length of Day
10h 15m
Waning Crescent, 29% of the Moon is Illuminated
Jan 24
Waning Crescent
Jan 29
New
Feb 5
First Quarter
Feb 12
Full
Feb 21
Last Quarter

Hourly Weather History & Observations

Time (EST) Temp. Windchill Dew Point Humidity Pressure Visibility Wind Dir Wind Speed Gust Speed Precip Events Conditions
12:00 AM 50.0 °F - 48.2 °F 94% 30.01 in 0.2 mi Calm Calm - N/A Fog Fog
12:20 AM 50.0 °F - 46.4 °F 87% 30.01 in 0.5 mi Calm Calm - N/A Fog Fog
12:40 AM 50.0 °F - 46.4 °F 87% 30.01 in 1.0 mi Calm Calm - N/A   Overcast
1:20 AM 51.8 °F - 48.2 °F 88% 30.01 in 7.0 mi Calm Calm - N/A   Overcast
2:00 AM 51.8 °F - 48.2 °F 88% 30.00 in 7.0 mi Calm Calm - N/A   Scattered Clouds
2:20 AM 50.0 °F - 46.4 °F 87% 30.00 in 7.0 mi Calm Calm - N/A   Mostly Cloudy
3:00 AM 50.0 °F - 46.4 °F 87% 29.99 in 1.2 mi Calm Calm - N/A   Mostly Cloudy
3:20 AM 48.2 °F - 46.4 °F 93% 29.99 in 7.0 mi Calm Calm - N/A   Scattered Clouds
3:40 AM 50.0 °F - 46.4 °F 87% 29.99 in 10.0 mi West 4.6 mph - N/A   Scattered Clouds
4:00 AM 48.2 °F - 46.4 °F 93% 29.99 in 10.0 mi NNW 10.4 mph 16.1 mph N/A   Clear
4:20 AM 50.0 °F - 46.4 °F 87% 29.99 in 10.0 mi NNW 10.4 mph 17.3 mph N/A   Clear
5:00 AM 50.0 °F - 42.8 °F 76% 29.99 in 10.0 mi WNW 5.8 mph - N/A   Scattered Clouds
5:20 AM 50.0 °F - 41.0 °F 71% 29.99 in 10.0 mi NNW 9.2 mph - N/A   Mostly Cloudy
6:00 AM 46.4 °F 44.3 °F 41.0 °F 81% 30.00 in 10.0 mi WNW 4.6 mph - N/A   Clear
6:20 AM 44.6 °F - 41.0 °F 87% 30.00 in 10.0 mi Calm Calm - N/A   Clear
6:40 AM 42.8 °F 40.1 °F 39.2 °F 87% 30.01 in 10.0 mi WSW 4.6 mph - N/A   Clear
7:20 AM 39.2 °F - 37.4 °F 93% 30.02 in 7.0 mi Calm Calm - N/A   Clear
8:00 AM 39.2 °F - 35.6 °F 87% 30.04 in 5.0 mi Calm Calm - N/A   Clear
8:20 AM 39.2 °F 37.0 °F 37.4 °F 93% 30.04 in 7.0 mi South 3.5 mph - N/A   Clear
9:00 AM 44.6 °F - 41.0 °F 87% 30.06 in 10.0 mi Calm Calm - N/A   Clear
9:20 AM 46.4 °F 45.2 °F 37.4 °F 71% 30.06 in 10.0 mi NNW 3.5 mph - N/A   Clear
10:00 AM 50.0 °F - 37.4 °F 62% 30.07 in 10.0 mi North 5.8 mph - N/A   Clear
10:20 AM 50.0 °F - 37.4 °F 62% 30.07 in 10.0 mi North 4.6 mph - N/A   Clear
10:40 AM 51.8 °F - 33.8 °F 50% 30.07 in 10.0 mi NNW 10.4 mph - N/A   Clear
11:00 AM 51.8 °F - 32.0 °F 47% 30.06 in 10.0 mi NW 9.2 mph - N/A   Clear
12:00 PM 53.6 °F - 24.8 °F 33% 30.03 in 10.0 mi NNW 9.2 mph 16.1 mph N/A   Clear
12:20 PM 55.4 °F - 24.8 °F 31% 30.02 in 10.0 mi North 15.0 mph 18.4 mph N/A   Clear
1:00 PM 55.4 °F - 21.2 °F 26% 30.01 in 10.0 mi NW 5.8 mph - N/A   Clear
1:20 PM 55.4 °F - 19.4 °F 25% 30.00 in 10.0 mi NW 10.4 mph 20.7 mph N/A   Clear
2:00 PM 57.2 °F - 19.4 °F 23% 29.98 in 10.0 mi North 8.1 mph - N/A   Clear
2:20 PM 59.0 °F - 17.6 °F 20% 29.97 in 10.0 mi Calm Calm - N/A   Clear
3:00 PM 59.0 °F - 15.8 °F 19% 29.96 in 10.0 mi North 8.1 mph - N/A   Clear
3:20 PM 59.0 °F - 14.0 °F 17% 29.97 in 10.0 mi NW 8.1 mph 18.4 mph N/A   Clear
3:40 PM 59.0 °F - 15.8 °F 19% 29.97 in 10.0 mi NNW 9.2 mph 16.1 mph N/A   Clear
4:00 PM 59.0 °F - 17.6 °F 20% 29.98 in 10.0 mi North 8.1 mph - N/A   Clear
4:20 PM 57.2 °F - 17.6 °F 21% 29.98 in 10.0 mi North 5.8 mph - N/A   Clear
5:00 PM 55.4 °F - 19.4 °F 25% 29.99 in 10.0 mi North 10.4 mph 16.1 mph N/A   Clear
5:20 PM 53.6 °F - 19.4 °F 26% 29.98 in 10.0 mi North 3.5 mph - N/A   Clear
5:40 PM 51.8 °F - 23.0 °F 33% 29.98 in 10.0 mi NNW 8.1 mph - N/A   Clear
6:00 PM 51.8 °F - 23.0 °F 33% 29.99 in 10.0 mi North 5.8 mph - N/A   Clear
6:20 PM 44.6 °F - 32.0 °F 61% 29.99 in 10.0 mi Calm Calm - N/A   Clear
7:00 PM 41.0 °F - 32.0 °F 70% 29.99 in 10.0 mi Calm Calm - N/A   Clear
7:20 PM 39.2 °F - 32.0 °F 75% 30.00 in 10.0 mi Calm Calm - N/A   Clear
8:00 PM 37.4 °F - 32.0 °F 81% 29.99 in 10.0 mi Calm Calm - N/A   Clear
8:20 PM 37.4 °F - 32.0 °F 81% 29.98 in 10.0 mi Calm Calm - N/A   Clear
9:00 PM 35.6 °F - 32.0 °F 87% 29.99 in 10.0 mi Calm Calm - N/A   Clear
9:20 PM 33.8 °F - 32.0 °F 93% 30.00 in 10.0 mi Calm Calm - N/A   Clear
10:00 PM 35.6 °F - 32.0 °F 87% 30.00 in 10.0 mi Calm Calm - N/A   Clear
10:20 PM 48.2 °F - 26.6 °F 43% 30.00 in 10.0 mi WNW 10.4 mph 18.4 mph N/A   Clear
10:40 PM 51.8 °F - 26.6 °F 38% 30.00 in 10.0 mi WNW 11.5 mph 20.7 mph N/A   Clear
11:00 PM 51.8 °F - 23.0 °F 33% 30.00 in 10.0 mi WNW 6.9 mph 23.0 mph N/A   Clear
11:20 PM 51.8 °F - 23.0 °F 33% 29.99 in 10.0 mi NW 12.7 mph 21.9 mph N/A   Clear